www.pogodaiklimat.ru

Погода и климат >> Архив погоды >> Россия >> Крым >> Евпатория


ПОГОДА в Евпатории

АРХИВ ПОГОДЫ в Евпатории

Время (UTC), дата Ветер
(напр.,м/с)
 
Видим.   Явления Облачность Т
(С)
Тd
(С)
f
(%)
Тe
(С)
Тes
(С)
Комфортность P
(гПа)
Po
(гПа)
Тmin
(С)
Tmax
(С)
R
(мм)
R24
(мм)
S
(см)
15 10.09 В 12-16
{16}
20 км ясно +25.4 +14.2 50 +28 +28 жарко 1017.5 1016.3
18 10.09 В 13-16
{19}
10 км ясно +23.4 +12.0 49 +26 +26 жарко 1019.4 1018.2 +25.4
21 10.09 СВ 6
{16}
10 км ясно +19.3 +13.7 70 +20 +20 тепло 1021.2 1020.0
00 11.09 СВ 5 10 км ясно +18.8 +14.7 77 +19 +19 тепло 1021.2 1020.0
03 11.09 СВ 6
{10}
10 км ясно +18.5 +13.2 71 +19 +19 тепло 1020.3 1019.1 +18.4
06 11.09 СВ 9-13
{12}
20 км ясно +21.3 +13.3 60 +24 +24 комфорт 1020.7 1019.5 +18.4
09 11.09 В 13-17
{16}
20 км ясно +25.4 +11.9 43 +27 +27 жарко 1022.5 1021.3
12 11.09 В 13-16
{17}
20 км ясно +26.4 +12.7 43 +28 +28 жарко 1020.8 1019.6
15 11.09 В 13-17
{17}
20 км ясно +24.9 +13.5 49 +27 +27 жарко 1021.5 1020.3
18 11.09 В 8-10
{17}
10 км ясно +22.6 +13.5 56 +26 +26 жарко 1022.6 1021.4 +26.4
21 11.09 СВ 7
{10}
10 км ясно +20.1 +13.1 64 +22 +22 комфорт 1022.5 1021.3
00 12.09 СВ 7-10
{11}
20 км ясно +19.5 +14.1 71 +21 +21 комфорт 1022.5 1021.3 +18.4
03 12.09 СВ 6
{10}
10 км ясно +18.6 +15.0 80 +19 +19 тепло 1022.3 1021.1 +18.4
06 12.09 В 9-10
{11}
20 км ясно +22.2 +14.8 63 +26 +26 душно 1022.6 1021.4 +18.4
09 12.09 В 15 20 км ясно +25.4 +9.6 37 +26 +26 жарко 1023.9 1022.7
12 12.09 В 11-13
{18}
20 км ясно +26.5 +7.7 30 +26 +26 жарко 1022.7 1020.6
15 12.09 В 11-15
{16}
20 км ясно +25.9 +8.9 34 +26 +26 жарко 1021.8 1020.6
18 12.09 В 7-12
{16}
20 км ясно +22.9 +9.7 43 +25 +25 комфорт 1023.0 1021.8 +26.5
21 12.09 СВ 2 10 км ясно +19.6 +12.3 63 +22 +22 комфорт 1022.9 1021.7
00 13.09 СВ 3 10 км ясно +17.0 +10.4 65 +17 +17 тепло 1023.9 1022.7
03 13.09 СВ 2 10 км ясно +17.1 +1.1 34 +17 +17 по сезону 1022.6 1021.4 +17.0
06 13.09 СВ 3 20 км ясно +20.1 +11.3 57 +22 +25 комфорт 1023.9 1022.7 +15.6
09 13.09 СВ 9-11
{11}
20 км 1/1 1000 м
[Cu med, cong]
+26.0 +5.7 27 +25 +26 комфорт 1022.6 1021.4
12 13.09 В 6-10
{11}
20 км 3/1 600 м
[Cu hum Ci fib]
+27.0 +9.3 33 +27 +30 жарко 1021.3 1020.1
15 13.09 В 8-11
{11}
20 км 5/0
[Ci]
+25.9 +9.2 35 +26 +26 жарко 1021.2 1020.0
18 13.09 СВ 4
{11}
10 км 3/0
[Cc]
+23.4 +8.9 40 +25 +25 комфорт 1022.0 1020.8 +27.3
21 13.09 С 3 10 км ясно +19.1 +5.9 42 +20 +20 тепло 1022.5 1021.3
00 14.09 СВ 1 10 км ясно +16.1 +8.9 62 +17 +17 тепло 1021.7 1020.5
03 14.09 СВ 1 10 км ясно +14.3 +6.3 59 +15 +15 по сезону 1021.4 1020.2 +14.1
06 14.09 В 1 20 км ясно +18.1 +11.6 66 +19 +24 тепло 1022.5 1021.3 +12.3
09 14.09 ЮЗ 3 20 км ясно +25.4 +10.4 39 +26 +36 жарко 1022.5 1021.3
12 14.09 З 4 20 км 1/0
[Ac lent]
+27.2 +8.6 31 +27 +32 жарко 1021.2 1020.0
15 14.09 З 4 20 км 6/0
[Cs]
+25.2 +16.6 59 +29 +29 душно 1019.9 1018.7
18 14.09 Ю 5 10 км 3/3 600 м
[Cu hum]
+23.7 +12.4 49 +26 +26 жарко 1019.8 1018.6 +28.0
21 14.09 С 6 10 км 8/8 600 м
[Sc]
+21.9 +11.6 52 +24 +24 комфорт 1022.5 1021.3
00 15.09 С 5
{10}
10 км 3/0
[Ci]
+18.7 +10.3 58 +19 +19 тепло 1023.9 1022.7
03 15.09 С 5 10 км ясно +16.1 +7.6 57 +15 +15 по сезону 1022.8 1021.6 +15.9
06 15.09 СВ 6 20 км ясно +17.5 +6.7 49 +17 +18 по сезону 1025.2 1024.0 +15.1
09 15.09 СВ 5
{11}
20 км ясно +21.4 +5.7 36 +22 +28 комфорт 1025.2 1024.0
12 15.09 СВ 6
{11}
20 км ясно +23.3 +3.2 27 +23 +26 комфорт 1023.9 1022.7
15 15.09 СВ 3 20 км ясно +23.2 +7.7 37 +24 +25 комфорт 1023.9 1022.7
18 15.09 С 3 10 км ясно +19.0 +10.3 57 +20 +20 тепло 1023.9 1022.7 +23.3
21 15.09 СВ 2 10 км ясно +16.5 +9.2 62 +17 +17 тепло 1022.5 1021.3
00 16.09 СВ 2 10 км ясно +13.2 +8.9 75 +13 +13 по сезону 1022.5 1021.3
03 16.09 ЮВ 3 10 км ясно +12.7 +9.9 83 +11 +11 прохладно 1020.0 1018.8 +11.6
06 16.09 В 2 50 км ясно +15.3 +6.6 56 +15 +19 по сезону 1019.9 1018.7 +11.6
09 16.09 Ю 2 20 км 1/1 600 м
[Cu hum]
+21.9 +12.2 54 +24 +34 комфорт 1018.5 1017.3
12 16.09 ЮЗ 4 20 км 1/1 600 м
[Cu hum]
+23.8 +11.1 45 +25 +30 комфорт 1017.2 1016.0
15 16.09 З 4 20 км ясно +21.6 +12.4 56 +24 +24 комфорт 1015.9 1014.7
18 16.09 З 2 10 км ясно +19.3 +12.8 66 +21 +21 комфорт 1015.9 1014.7 +24.3
21 16.09 З 3 10 км ясно +18.8 +12.1 65 +20 +20 тепло 1015.9 1014.7
00 17.09 З 3 10 км ясно +18.9 +14.6 76 +20 +20 тепло 1014.5 1013.3
03 17.09 З 3 10 км 1/1 600 м
[Sc]
+19.4 +16.1 81 +21 +21 комфорт 1012.4 1011.2 +18.5
06 17.09 З 4 20 км 5/5 600 м
[Cu hum]
+21.9 +17.2 75 +26 +27 душно 1012.3 1011.1 +18.5

 

Местоположение метеостанции Евпатория (Крым, Россия): широта 45.18 долгота 33.37 высота над уровнем моря 10 м.

В архиве по умолчанию представлена погода в Евпатории за последнюю неделю. Архивные данные за месяц целиком и за предыдущие месяцы, начиная с января 2011 года, Вы можете получить, выбрав интересующий диапазон дат из раскрывающегося списка и нажав кнопку "Ввод!".


*Определитесь, кто Вы:
робот инопланетянин человек

Внимание! Время в таблицах - всемирное. Для получения местного времени необходимо прибавить поправку, которая равна 3 ч.

Смотрите также архив погоды в соседних городах и на ближайших метеорологических станциях:

Погода в Симферополе (Крым, Россия) (50 км)
Погода в Почтовом (Крым, Россия) (60 км)
Погода в Севастополе (город Севастополь, Россия) (64 км)
Погода в Симферополе город (Крым, Россия) (64 км)
Погода в Черноморском (Крым, Россия) (65 км)
Погода в Херсонесском Маяке (город Севастополь, Россия) (67 км)
Погода в Раздольном (Крым, Россия) (67 км)
Погода в Клепинино (Крым, Россия) (74 км)
Погода в Ишуни (Крым, Россия) (89 км)
Погода на Ангарском Перевале (Крым, Россия) (91 км)

Пояснения к столбцам:

Ветер - указаны скорость ветра в м/с - средняя за 10 мин, порывы в срок и между сроками (в фигурных скобках) и направление, откуда дует ветер: С - северный, СВ - северо-восточный, В - восточный, ЮВ - юго-восточный, Ю - южный, ЮЗ - юго-западный, З - западный, СЗ - северо-западный.
Видимость - горизонтальная дальность видимости в метрах или километрах. При видимости от 1 до 10 км при отсутствии осадков обычно наблюдается дымка, при ухудшении видимости до 1 км и менее - туман. В сухую погоду видимость может ухудшаться дымом, пылью или мглою.
Явления - указаны атмосферные явления, наблюдавшиеся в срок или в последний час перед сроком; фигурными скобками обозначены явления, наблюдавшиеся между сроками (за 1-3 часа до срока); квадратными скобками обозначены град или гололедные отложения с указанием их диаметра в мм.
Облачность - указаны через наклонную черту общая и нижняя облачность в баллах и высота нижней границы облаков в метрах; квадратными скобками обозначены формы облаков: Ci - перистые, Cs - перисто-слоистые, Cc - перисто-кучевые, Ac - высококучевые, As - высокослоистые, Sc - слоисто-кучевые, Ns - слоисто-дождевые, Cu - кучевые, Cb - кучево-дождевые. Подробнее классификацию облаков см. в Атласе облаков (PDF).
T - Температура воздуха - температура, измеренная на высоте 2 м над землей.
Td - Температура точки росы - температура, при понижении до которой содержащийся в воздухе водяной пар достигнет насыщения.
f - Относительная влажность воздуха - влажноcть воздуха, измеренная на высоте 2 м над землей.
Te - Эффективная температура - температура, которую ощущает одетый по сезону человек в тени. Характеристика душности погоды. При расчете учитывается влияние влажности воздуха и скорости ветра на теплоощущения человека.
Tes - Эффективная температура на солнце - температура, которую ощущает человек, с поправкой на солнечный нагрев. Характеристика знойности погоды. Зависит от высоты солнца над горизонтом, облачности и скорости ветра. Ночью, в пасмурную погоду, а также при ветре 12 м/с и более поправка равна нулю.
P - Атмосферное давление - приведенное к уровню моря атмосферное давление.
Po - Атмосферное давление - измеренное на уровне метеостанции атмосферное давление.
Tmin - Минимальная температура - минимум температуры воздуха на высоте 2 м над землей.
Tmax - Максимальная температура - максимум температуры воздуха на высоте 2 м над землей.
R - Количество осадков - Количество выпавших осадков за период времени, мм. При наведении курсора мыши на число - период времени, за который выпало указанное количество осадков.
R24 - Количество осадков - Количество выпавших осадков за 24 часа, мм.
S - Снежный покров - Высота снежного покрова, см. При наведении курсора мыши на число - состояние снежного покрова и степень покрытия местности в баллах.